Presure
134 128 124 130 255 256 257 246 244 258 170 214 168 124 134 153 155 163 139 150 121 130 112 117 120 123 125 163 171 131 143 161 156 129 155 158 174 151 140 149 157 168 163 172 187
173 263 142 249 253 260 251 241 242 238 251 203 194 151 148 152 190 142 137 121 112 115 131 120 123 152 181 131 130 125 145 158 147 161 156 125 142 153 158 173 176 186 185 276 262
121 125 128 241 239 252 245 247 120 139 260 254 222 145 157 162 186 145 116 116 131 132 126 119 124 160 130 162 155 140 133 172 168 151 119 166 175 177 181 186 174 176 224 220 263
128 221 226 241 255 245 139 144 127 246 139 240 188 204 201 189 203 192 122 134 128 120 126 114 152 133 185 137 183 172 162 171 176 182 176 183 190 173 182 177 228 188 191 224 242
202 242 229 244 244 245 202 143 236 173 234 180 136 246 247 213 112 119 118 131 126 133 148 156 184 154 185 173 172 176 159 186 180 172 172 221 219 234 212 251 252 261 249 247 217
248 230 225 201 130 248 239 238 151 200 248 246 233 128 142 141 137 191 128 134 129 187 132 239 174 188 167 156 141 134 176 212 179 247 218 211 257 249 243 237 232 245 225 233 231
226 220 231 144 224 184 229 236 143 237 165 140 141 148 149 148 217 245 245 258 235 257 262 167 131 187 190 135 245 183 178 233 258 218 246 231 217 231 220 198 222 231 220 211 207
223 222 218 150 230 227 210 211 228 198 239 230 170 150 163 226 238 238 245 247 238 208 142 248 241 210 188 226 237 251 245 246 228 234 240 235 231 230 223 209 210 216 212 202 213
224 217 232 238 235 220 222 227 169 144 188 152 181 152 215 224 234 238 232 231 237 169 236 202 212 230 231 229 247 245 239 244 236 217 219 224 221 206 209 215 212 197 198 191 190
119 230 236 235 162 228 226 228 220 214 214 212 216 227 234 230 226 227 228 206 223 226 211 222 226 234 237 239 216 231 220 228 214 216 216 217 218 208 202 204 196 198 197 194 196
220 186 145 224 219 220 211 205 208 208 217 213 231 230 222 217 218 222 217 225 253 222 144 228 217 213 224 227 217 223 211 230 217 218 194 210 207 201 199 199 201 190 204 201 194
215 212 209 162 144 205 206 209 208 213 211 230 220 196 196 142 218 196 212 162 218 158 219 218 235 235 233 218 214 207 218 208 214 207 218 215 206 201 198 200 198 194 174 188 197
171 203 203 203 201 202 204 207 205 226 223 214 215 156 143 184 210 185 202 227 192 236 172 223 223 218 207 217 210 213 219 214 213 214 223 219 208 199 197 191 194 168 183 184 199
200 201 210 204 202 203 203 222 205 212 215 208 205 212 214 208 207 215 219 207 240 181 230 223 221 210 207 206 206 196 215 214 212 217 212 213 204 199 181 184 177 168 187 161 177
123 170 208 203 223 225 219 212 210 204 200 207 203 201 192 203 203 208 231 138 181 222 227 226 215 207 211 211 198 210 214 207 201 214 215 216 206 197 190 186 175 180 178 178 178
140 199 207 227 217 212 208 204 199 198 201 198 196 206 203 202 208 225 139 182 227 230 225 225 216 210 204 197 193 133 194 195 195 199 198 198 195 190 185 195 189 118 178 162 124
177 222 220 210 206 205 204 197 198 194 197 198 201 195 197 205 216 189 255 250 240 239 236 234 233 214 205 203 202 207 204 187 184 179 180 181 190 202 195 196 170 191 178 181 129
187 214 205 204 200 203 194 196 193 192 197 198 192 141 204 212 213 211 242 242 249 231 242 248 234 229 213 197 196 204 192 189 183 179 184 188 189 197 207 201 198 201 198 185 154
197 207 208 199 197 194 193 195 193 190 192 188 195 198 206 210 204 206 210 249 228 236 240 244 235 238 217 203 189 204 187 188 190 187 180 191 192 208 188 189 187 183 165 192 188
200 206 198 195 197 191 194 192 192 197 189 182 194 195 219 213 204 203 224 236 231 217 249 234 220 221 223 208 180 178 186 186 189 185 191 190 181 183 169 177 179 179 124 168 177
210 205 193 196 187 192 192 190 195 194 187 186 192 207 214 207 201 203 198 222 241 217 206 202 201 239 197 193 193 191 188 190 163 195 190 182 182 164 170 176 179 177 168 176 180
220 207 195 194 195 190 194 182 200 191 184 190 191 197 194 205 197 199 199 202 195 206 215 212 211 202 203 196 193 171 197 200 184 177 174 171 179 182 176 181 182 176 174 170 178
213 203 193 193 189 194 183 201 198 187 191 188 193 193 191 213 200 199 195 195 193 188 188 200 197 193 175 196 195 199 176 174 181 177 178 181 180 178 175 178 170 175 170 171 182
210 200 199 189 191 182 187 197 195 188 186 189 193 189 189 194 198 197 189 194 185 186 184 187 200 187 183 177 176 183 179 178 179 180 176 181 178 179 169 173 172 176 146 167 197
207 204 194 192 189 186 188 193 196 188 187 190 187 191 188 185 189 192 204 193 191 192 183 183 179 187 180 197 179 174 158 181 174 176 164 176 168 169 179 169 131 181 183 193 150
210 202 190 197 184 188 189 196 194 191 190 187 187 187 189 187 191 188 180 197 200 195 179 179 163 191 170 177 167 174 179 178 179 174 175 176 175 170 185 186 102 193 187 202 199
209 200 187 195 187 186 185 196 191 196 183 188 185 193 189 186 181 186 173 180 184 184 179 190 178 178 176 172 181 155 172 176 176 169 174 177 182 179 149 185 175 159 198 203 208
Wind_Speed
46 39 37 42 36 39 41 49 51 49 53 112 88 38 41 51 56 77 54 64 44 46 49 53 56 57 59 66 82 63 75 74 71 69 90 81 107 85 82 91 94 107 99 118 134
33 26 35 32 34 36 40 47 51 64 56 96 101 58 45 54 113 42 42 45 46 50 47 56 57 77 104 58 60 63 71 75 84 79 79 67 77 89 90 120 119 126 117 34 42
38 34 37 32 32 33 36 40 40 41 43 49 85 42 53 57 99 61 40 45 45 47 50 57 59 65 58 70 65 66 68 100 88 71 65 98 112 114 113 113 99 103 74 74 10
33 22 31 29 32 33 38 39 43 41 41 53 48 97 104 95 116 111 42 44 47 52 53 45 65 55 104 58 114 87 76 88 104 113 105 115 126 93 91 103 74 96 89 57 25
18 26 32 29 30 32 34 37 41 37 38 36 39 44 49 83 38 39 40 45 49 49 59 75 99 58 107 90 73 82 92 112 103 89 88 66 52 57 82 29 20 2 10 4 36
26 28 31 27 39 29 33 33 35 32 30 28 25 36 37 40 41 88 46 47 50 92 51 60 80 92 79 57 61 60 84 92 98 48 90 85 21 23 21 29 28 10 25 16 14
29 32 26 33 25 29 25 27 36 25 33 37 37 37 39 40 58 32 35 19 40 21 22 60 54 86 91 55 47 82 80 45 17 69 20 39 57 26 42 57 26 16 19 23 27
28 28 29 31 27 27 25 25 22 25 16 19 33 38 36 31 23 25 19 20 27 70 48 32 50 85 87 59 50 19 26 16 37 30 17 23 21 17 22 37 30 18 17 24 18
29 29 26 26 27 26 22 18 27 33 24 38 30 38 32 27 19 16 20 25 22 42 30 39 35 36 40 39 17 19 19 10 16 33 32 21 21 32 29 19 19 31 26 31 33
28 26 25 23 26 18 16 15 14 17 17 20 21 18 13 15 19 18 19 26 25 28 32 33 32 28 20 17 40 23 31 25 35 30 26 22 16 23 29 23 29 27 29 31 30
28 20 35 20 18 16 19 20 19 18 16 21 14 11 15 18 18 18 21 22 13 26 44 28 32 36 30 26 34 28 36 16 22 21 42 27 23 27 28 28 28 29 31 31 32
24 23 22 29 33 19 17 18 19 18 19 10 12 20 21 41 17 25 23 36 24 40 29 30 19 21 19 28 30 33 24 28 27 32 21 20 23 26 28 29 30 32 30 31 34
24 24 23 21 22 22 21 20 20 9 10 12 11 34 39 26 18 28 24 21 29 22 34 27 25 27 30 26 27 28 21 21 21 25 23 18 22 27 26 27 28 42 30 32 33
27 23 17 21 22 22 21 12 15 12 12 14 17 15 16 17 20 22 24 26 17 33 24 27 26 29 28 28 27 29 20 19 21 21 21 19 23 26 29 27 30 40 31 57 42
37 28 19 20 12 14 15 15 13 14 16 16 15 16 21 20 22 21 18 41 31 20 21 27 29 29 28 28 28 22 18 19 21 15 16 18 22 25 29 30 34 31 38 42 46
34 23 18 16 18 19 18 17 18 17 17 14 16 17 20 22 21 19 42 32 21 21 23 25 30 32 30 30 27 46 27 25 23 19 18 16 18 26 24 23 26 48 44 38 36
24 18 19 20 20 20 19 19 16 16 17 15 16 20 23 23 18 27 19 19 20 20 25 26 26 33 32 32 31 24 21 26 28 30 30 30 27 26 28 30 39 39 47 39 43
23 21 22 23 22 20 20 19 18 19 17 17 18 37 21 20 19 19 17 15 16 20 21 25 27 30 31 27 29 27 21 23 29 35 36 36 39 34 35 33 35 38 39 44 54
24 25 24 25 24 23 22 21 20 19 18 19 18 19 21 19 20 20 19 15 15 17 20 21 24 25 29 26 25 29 28 30 30 33 38 43 48 38 33 35 37 40 50 48 51
28 28 28 27 27 26 24 22 20 19 20 21 19 21 17 18 20 20 15 14 14 14 15 18 21 29 25 23 28 30 30 32 34 35 37 39 52 38 40 44 45 45 54 47 60
29 33 32 30 29 27 24 21 21 20 22 23 21 19 17 18 21 19 24 13 13 15 19 19 19 21 21 24 24 27 31 32 39 36 35 36 53 43 49 52 58 59 59 63 69
32 36 34 31 30 27 25 22 22 23 25 22 23 23 24 21 23 20 23 20 23 17 13 16 19 22 22 25 28 28 31 31 34 40 43 46 53 51 51 57 58 61 64 65 73
33 37 34 31 28 28 24 25 22 24 22 25 26 26 26 22 22 21 23 23 24 26 26 22 22 24 30 28 30 30 35 36 40 43 47 51 55 57 58 60 61 66 67 69 80
37 40 39 32 31 26 26 25 24 26 27 28 27 28 28 27 25 26 28 26 29 31 31 31 23 28 30 33 39 37 37 38 41 46 45 54 53 58 60 64 67 70 58 70 84
41 42 38 35 30 29 28 27 27 29 30 29 30 31 32 31 31 30 29 31 32 33 33 34 34 39 38 39 41 45 46 42 43 47 43 53 58 63 68 64 44 80 80 85 62
44 45 37 37 28 30 29 30 30 30 31 32 33 35 35 35 34 34 36 32 32 33 35 36 33 41 41 37 42 50 45 46 53 54 56 60 65 68 76 78 40 86 87 92 93
47 46 36 37 33 32 30 32 34 34 34 36 36 38 39 40 39 39 38 37 37 40 40 40 41 44 51 47 50 43 51 51 56 60 61 68 74 76 66 82 76 65 96 96 96
Wind_Direction
238 240 245 252 211 208 206 212 216 221 235 229 232 249 248 244 245 247 250 250 255 252 268 264 261 261 261 279 281 271 276 286 285 280 290 290 292 291 289 291 291 293 288 290 289
228 215 237 204 207 200 206 208 216 221 222 231 231 240 247 246 243 248 248 250 262 263 252 260 262 266 266 266 268 273 284 282 283 285 287 292 285 288 289 291 291 294 292 295 294
235 239 244 201 203 196 201 209 241 238 220 225 233 242 243 244 245 247 253 257 255 253 257 265 265 272 264 276 275 273 276 282 283 281 296 287 288 290 290 293 290 290 291 293 300
237 206 193 190 188 191 238 228 240 219 238 227 234 238 239 242 246 251 252 252 255 261 259 269 268 264 270 268 279 279 279 281 284 282 287 289 290 284 287 287 290 291 289 295 300
197 175 184 179 183 185 209 229 212 230 224 236 238 241 245 248 254 253 258 253 257 257 263 263 265 270 269 277 278 279 280 280 283 284 285 288 284 286 291 290 288 105 303 295 302
155 171 181 196 234 181 190 199 228 222 221 230 241 246 245 247 253 249 254 252 259 259 262 264 271 271 272 277 275 279 278 280 278 281 287 288 271 276 290 287 294 303 305 307 299
164 171 167 230 180 212 187 195 230 212 231 240 244 246 251 254 254 268 269 278 274 261 248 271 266 266 275 277 276 281 281 274 261 286 270 286 290 285 287 292 295 313 315 309 308
166 165 171 228 178 181 199 199 199 222 217 225 247 250 253 252 269 267 273 264 274 266 262 265 274 269 271 274 276 266 277 272 283 281 283 284 286 292 292 292 298 314 317 307 305
167 172 166 165 171 182 185 189 224 236 230 244 246 252 251 258 267 262 264 271 262 265 270 273 274 279 273 279 273 274 279 270 281 285 285 281 286 299 294 305 307 302 304 302 305
231 158 158 159 225 158 166 168 176 204 223 235 247 254 247 253 261 265 269 264 268 273 273 276 279 280 271 270 283 277 287 273 281 279 279 281 290 289 291 292 299 297 293 295 299
159 189 223 144 148 148 175 198 208 221 236 238 243 236 247 257 261 269 273 276 269 277 277 276 281 283 276 273 284 274 287 261 270 270 298 284 288 288 287 294 296 296 299 304 304
151 155 159 215 228 185 193 205 210 221 231 220 232 248 250 253 269 265 273 271 281 278 277 278 259 252 247 275 280 294 277 282 278 279 282 286 288 285 287 294 299 307 291 309 309
206 176 178 181 190 198 205 212 224 235 214 233 240 250 254 259 268 271 279 279 273 251 278 260 255 260 277 272 281 277 279 284 292 295 295 290 280 283 296 296 301 293 296 289 300
181 185 187 193 200 207 214 211 219 218 227 234 243 253 260 266 272 272 275 276 268 275 253 251 256 265 277 281 282 289 285 293 292 294 294 293 292 292 285 290 287 283 297 294 281
241 217 207 200 214 184 186 199 209 221 234 240 249 261 267 271 269 274 287 273 277 270 259 245 256 268 265 271 284 287 287 287 292 300 301 299 291 293 286 286 282 278 282 286 288
239 201 211 183 184 191 201 206 216 230 237 251 261 265 264 266 281 297 276 280 275 267 260 251 249 259 268 276 284 305 282 285 292 298 305 306 299 288 295 300 296 316 280 285 313
224 193 186 190 194 201 204 215 225 236 250 257 263 268 277 287 302 288 292 276 268 262 254 254 246 248 260 267 278 269 265 292 297 298 291 294 297 298 294 312 311 296 290 305 318
211 193 198 197 204 205 214 223 230 241 254 261 266 266 287 298 304 302 307 298 279 279 266 260 252 242 249 272 285 285 297 294 290 290 298 303 303 315 314 312 306 305 307 302 303
209 204 200 204 209 215 223 227 237 246 253 263 279 285 288 295 296 298 303 315 292 290 277 269 264 260 254 266 290 286 297 296 298 300 307 311 308 314 323 318 313 309 317 309 306
213 206 207 212 216 222 226 232 242 247 258 265 282 289 294 291 290 296 313 311 302 296 300 283 283 274 259 274 295 296 293 299 301 307 310 315 309 325 316 318 316 313 322 304 313
216 211 215 215 222 226 232 239 245 248 259 269 278 286 283 281 287 293 301 321 317 301 288 287 290 273 279 279 279 286 296 300 311 305 314 322 306 314 318 318 319 317 310 316 314
216 214 218 220 225 234 238 247 242 249 263 274 281 282 280 281 283 287 296 298 303 305 312 303 301 292 288 287 291 303 295 301 318 320 318 315 309 310 314 312 313 311 310 310 309
219 216 223 224 232 235 245 246 251 258 269 273 277 282 285 280 281 282 288 292 298 303 306 307 302 301 320 305 306 303 320 322 318 316 316 312 314 310 311 309 308 306 307 306 306
222 221 222 229 230 241 249 250 253 257 264 271 275 280 283 288 287 285 290 288 296 302 309 309 299 307 314 319 314 311 320 319 315 312 315 308 307 307 308 307 308 310 312 314 309
226 224 227 233 235 244 250 252 253 255 264 271 274 275 277 280 284 287 284 286 289 292 304 304 313 308 308 306 312 306 300 310 304 305 307 305 306 307 305 309 317 311 312 310 311
227 227 232 233 239 245 251 254 255 258 264 266 269 271 276 279 280 282 291 288 289 294 303 307 294 306 302 308 299 303 308 308 307 308 310 309 308 310 309 310 311 312 312 314 311
227 229 233 239 243 249 253 257 258 259 262 267 270 272 273 273 281 282 294 295 298 298 302 301 308 307 304 305 307 304 302 308 308 308 310 311 310 310 314 310 314 309 314 312 311